EZY982 EGJJ-EGMC

Flight info

Callsign EZY982
Flight time 0h 33m
Altitude 19000
Route BENIX G27 AKIKI/N0360F270 DCT NEVIL
Aircraft A320/M-SDE2E3FGHIJ1RWXYZ/LB1

Departure

Time 2026-04-25 05:19
Airport Jersey Airport (EGJJ)

Arrival

Time 2026-04-25 05:53
Airport London Southend Airport (EGMC)
Time Latitude Longitude Altitude Speed Heading
2026-04-25 04:52 49.20562 -2.19637 284 ft 0 kts 159°
2026-04-25 05:12 49.20566 -2.19639 284 ft 2 kts 159°
2026-04-25 05:12 49.20581 -2.19649 287 ft 2 kts 159°
2026-04-25 05:12 49.20596 -2.19658 288 ft 2 kts 158°
2026-04-25 05:12 49.20612 -2.19665 284 ft 2 kts 170°
2026-04-25 05:13 49.20629 -2.19669 284 ft 2 kts 173°
2026-04-25 05:13 49.20645 -2.19667 284 ft 2 kts 216°
2026-04-25 05:13 49.20645 -2.19666 284 ft 0 kts 216°
2026-04-25 05:15 49.20643 -2.19669 284 ft 3 kts 216°
2026-04-25 05:16 49.20615 -2.19728 284 ft 8 kts 257°
2026-04-25 05:16 49.20608 -2.19817 284 ft 9 kts 263°
2026-04-25 05:16 49.20597 -2.19911 284 ft 9 kts 246°
2026-04-25 05:16 49.20546 -2.19934 284 ft 8 kts 177°
2026-04-25 05:17 49.20518 -2.19979 284 ft 6 kts 271°
2026-04-25 05:17 49.20529 -2.20044 284 ft 6 kts 287°
2026-04-25 05:17 49.20544 -2.20121 284 ft 11 kts 287°
2026-04-25 05:17 49.20575 -2.20274 284 ft 17 kts 287°
2026-04-25 05:18 49.20607 -2.20442 286 ft 16 kts 286°
2026-04-25 05:18 49.20627 -2.20602 284 ft 14 kts 274°
2026-04-25 05:18 49.20668 -2.20707 284 ft 11 kts 348°
2026-04-25 05:18 49.20705 -2.20665 283 ft 2 kts 83°
2026-04-25 05:19 49.20733 -2.20323 284 ft 76 kts 82°
2026-04-25 05:19 49.20827 -2.19158 368 ft 134 kts 83°
2026-04-25 05:19 49.20943 -2.17738 1048 ft 139 kts 84°
2026-04-25 05:20 49.21077 -2.16209 1728 ft 149 kts 83°
2026-04-25 05:20 49.21230 -2.14583 2364 ft 163 kts 82°
2026-04-25 05:20 49.21385 -2.12750 2889 ft 184 kts 82°
2026-04-25 05:20 49.21565 -2.10710 3359 ft 208 kts 81°
2026-04-25 05:21 49.21774 -2.08376 3895 ft 233 kts 81°
2026-04-25 05:21 49.22033 -2.05788 4578 ft 257 kts 74°
2026-04-25 05:21 49.22860 -2.03333 5507 ft 265 kts 49°
2026-04-25 05:21 49.24103 -2.01204 6552 ft 272 kts 46°
2026-04-25 05:22 49.25397 -1.99027 7521 ft 279 kts 47°
2026-04-25 05:22 49.26725 -1.96800 8554 ft 285 kts 48°
2026-04-25 05:22 49.28059 -1.94556 9565 ft 291 kts 49°
2026-04-25 05:22 49.29435 -1.92232 10476 ft 301 kts 48°
2026-04-25 05:23 49.30896 -1.89753 10966 ft 323 kts 49°
2026-04-25 05:23 49.32431 -1.87145 11750 ft 332 kts 48°
2026-04-25 05:23 49.33990 -1.84494 12691 ft 338 kts 48°
2026-04-25 05:23 49.35578 -1.81788 13597 ft 343 kts 48°
2026-04-25 05:24 49.37181 -1.79051 14460 ft 347 kts 48°
2026-04-25 05:24 49.38813 -1.76264 15245 ft 353 kts 48°
2026-04-25 05:24 49.40467 -1.73440 16039 ft 358 kts 48°
2026-04-25 05:24 49.42122 -1.70607 16818 ft 363 kts 48°
2026-04-25 05:25 49.43820 -1.67695 17604 ft 368 kts 48°
2026-04-25 05:25 49.45540 -1.64738 18390 ft 373 kts 49°
2026-04-25 05:25 49.47281 -1.61741 18932 ft 381 kts 49°
2026-04-25 05:25 49.49092 -1.58626 19113 ft 401 kts 48°
2026-04-25 05:26 49.51007 -1.55331 19168 ft 423 kts 48°
2026-04-25 05:26 49.53001 -1.51893 19167 ft 444 kts 48°
2026-04-25 05:26 49.55091 -1.48283 19166 ft 456 kts 48°
2026-04-25 05:26 49.57239 -1.44656 19165 ft 460 kts 47°
2026-04-25 05:27 49.59553 -1.41262 19161 ft 460 kts 36°
2026-04-25 05:27 49.62255 -1.38602 19168 ft 460 kts 31°
2026-04-25 05:27 49.64985 -1.36004 19163 ft 460 kts 31°
2026-04-25 05:27 49.67701 -1.33391 19163 ft 460 kts 31°
2026-04-25 05:28 49.70380 -1.30793 19167 ft 460 kts 31°
2026-04-25 05:28 49.73096 -1.28143 19168 ft 460 kts 31°
2026-04-25 05:28 49.75804 -1.25492 19170 ft 460 kts 31°
2026-04-25 05:28 49.78516 -1.22839 19170 ft 460 kts 31°
2026-04-25 05:29 49.81192 -1.20221 19172 ft 460 kts 31°
2026-04-25 05:29 49.83898 -1.17570 19172 ft 460 kts 31°
2026-04-25 05:29 49.86608 -1.14910 19171 ft 460 kts 31°
2026-04-25 05:29 49.89324 -1.12242 19179 ft 460 kts 31°
2026-04-25 05:30 49.92026 -1.09581 19179 ft 460 kts 31°
2026-04-25 05:30 49.94698 -1.06947 19174 ft 460 kts 31°
2026-04-25 05:30 49.97400 -1.04286 19185 ft 460 kts 31°
2026-04-25 05:30 50.00110 -1.01619 19179 ft 460 kts 31°
2026-04-25 05:31 50.02813 -0.98955 19170 ft 460 kts 31°
2026-04-25 05:31 50.05515 -0.96286 19176 ft 460 kts 31°
2026-04-25 05:31 50.08220 -0.93607 19181 ft 460 kts 31°
2026-04-25 05:31 50.10928 -0.90921 19181 ft 460 kts 31°
2026-04-25 05:32 50.13590 -0.88275 19186 ft 459 kts 31°
2026-04-25 05:32 50.16300 -0.85577 19194 ft 459 kts 31°
2026-04-25 05:32 50.18965 -0.82918 19193 ft 459 kts 31°
2026-04-25 05:32 50.21651 -0.80237 19201 ft 458 kts 31°
2026-04-25 05:33 50.24342 -0.77550 19198 ft 458 kts 31°
2026-04-25 05:33 50.27035 -0.74856 19197 ft 457 kts 31°
2026-04-25 05:33 50.29716 -0.72173 19197 ft 457 kts 31°
2026-04-25 05:33 50.32400 -0.69481 19196 ft 457 kts 31°
2026-04-25 05:34 50.35042 -0.66830 19184 ft 457 kts 31°
2026-04-25 05:34 50.37730 -0.64129 19177 ft 457 kts 31°
2026-04-25 05:34 50.40404 -0.61433 19189 ft 457 kts 31°
2026-04-25 05:34 50.43083 -0.58727 19201 ft 457 kts 31°
2026-04-25 05:35 50.45755 -0.56024 19206 ft 457 kts 31°
2026-04-25 05:35 50.48395 -0.53353 19207 ft 456 kts 31°
2026-04-25 05:35 50.51074 -0.50643 19209 ft 456 kts 31°
2026-04-25 05:35 50.53712 -0.47971 19193 ft 438 kts 31°
2026-04-25 05:36 50.56212 -0.45430 19198 ft 414 kts 31°
2026-04-25 05:36 50.58571 -0.43029 19193 ft 394 kts 31°
2026-04-25 05:36 50.60814 -0.40744 19202 ft 374 kts 31°
2026-04-25 05:36 50.62925 -0.38591 19199 ft 357 kts 31°
2026-04-25 05:37 50.64972 -0.36503 19133 ft 346 kts 31°
2026-04-25 05:37 50.66982 -0.34456 18823 ft 342 kts 31°
2026-04-25 05:37 50.68972 -0.32427 18514 ft 338 kts 31°
2026-04-25 05:37 50.70944 -0.30409 18175 ft 336 kts 31°
2026-04-25 05:38 50.72882 -0.28426 17835 ft 334 kts 31°
2026-04-25 05:38 50.74828 -0.26433 17491 ft 332 kts 31°
2026-04-25 05:38 50.76755 -0.24452 17154 ft 329 kts 31°
2026-04-25 05:38 50.78674 -0.22476 16821 ft 327 kts 31°
2026-04-25 05:39 50.80577 -0.20515 16490 ft 325 kts 31°
2026-04-25 05:39 50.82481 -0.18554 16159 ft 323 kts 31°
2026-04-25 05:39 50.84338 -0.16645 15839 ft 322 kts 31°
2026-04-25 05:39 50.86216 -0.14711 15508 ft 320 kts 32°
2026-04-25 05:40 50.88078 -0.12788 15201 ft 318 kts 32°
2026-04-25 05:40 50.89902 -0.10903 14886 ft 315 kts 32°
2026-04-25 05:40 50.91734 -0.09002 14576 ft 313 kts 32°
2026-04-25 05:40 50.93559 -0.07111 14266 ft 311 kts 32°
2026-04-25 05:41 50.95367 -0.05234 13950 ft 309 kts 32°
2026-04-25 05:41 50.97143 -0.03392 13603 ft 307 kts 32°
2026-04-25 05:41 50.98928 -0.01538 13274 ft 306 kts 32°
2026-04-25 05:41 51.00710 0.00310 12938 ft 304 kts 32°
2026-04-25 05:42 51.02483 0.02148 12609 ft 303 kts 32°
2026-04-25 05:42 51.03648 0.03357 12390 ft 302 kts 32°
2026-04-25 05:42 51.05410 0.05192 12063 ft 301 kts 32°
2026-04-25 05:42 51.07158 0.07013 11740 ft 300 kts 32°
2026-04-25 05:43 51.09466 0.09419 11318 ft 298 kts 32°
2026-04-25 05:43 51.10637 0.10643 11105 ft 297 kts 32°
2026-04-25 05:43 51.12344 0.12430 10795 ft 296 kts 33°
2026-04-25 05:43 51.14073 0.14239 10477 ft 295 kts 33°
2026-04-25 05:44 51.15788 0.16032 10173 ft 294 kts 33°
2026-04-25 05:44 51.17496 0.17823 9837 ft 293 kts 33°
2026-04-25 05:44 51.19200 0.19610 9497 ft 291 kts 33°
2026-04-25 05:44 51.20873 0.21364 9167 ft 290 kts 33°
2026-04-25 05:45 51.22554 0.23131 8832 ft 288 kts 33°
2026-04-25 05:45 51.24221 0.24889 8501 ft 286 kts 33°
2026-04-25 05:45 51.25881 0.26645 8173 ft 285 kts 33°
2026-04-25 05:45 51.27527 0.28382 7848 ft 283 kts 33°
2026-04-25 05:46 51.29163 0.30110 7525 ft 281 kts 33°
2026-04-25 05:46 51.30787 0.31827 7202 ft 276 kts 33°
2026-04-25 05:46 51.32377 0.33505 6882 ft 270 kts 33°
2026-04-25 05:46 51.33913 0.35122 6537 ft 264 kts 33°
2026-04-25 05:47 51.35435 0.36732 6196 ft 259 kts 33°
2026-04-25 05:47 51.36926 0.38309 5870 ft 254 kts 33°
2026-04-25 05:47 51.38372 0.39839 5536 ft 249 kts 33°
2026-04-25 05:47 51.39809 0.41363 5220 ft 245 kts 33°
2026-04-25 05:48 51.41226 0.42868 4896 ft 242 kts 33°
2026-04-25 05:48 51.42594 0.44325 4560 ft 235 kts 33°
2026-04-25 05:48 51.43937 0.45756 4230 ft 227 kts 33°
2026-04-25 05:48 51.45233 0.47135 3901 ft 221 kts 33°
2026-04-25 05:49 51.46487 0.48469 3587 ft 211 kts 33°
2026-04-25 05:49 51.47683 0.49742 3308 ft 200 kts 33°
2026-04-25 05:49 51.48749 0.51033 3110 ft 184 kts 47°
2026-04-25 05:49 51.49481 0.52586 2875 ft 167 kts 54°
2026-04-25 05:50 51.50135 0.54032 2640 ft 155 kts 54°
2026-04-25 05:50 51.50751 0.55391 2404 ft 146 kts 54°
2026-04-25 05:50 51.51328 0.56667 2179 ft 137 kts 54°
2026-04-25 05:50 51.51879 0.57886 1966 ft 133 kts 54°
2026-04-25 05:51 51.52414 0.59069 1760 ft 131 kts 54°
2026-04-25 05:51 51.52948 0.60250 1546 ft 130 kts 54°
2026-04-25 05:51 51.53478 0.61424 1339 ft 129 kts 54°
2026-04-25 05:51 51.54004 0.62589 1128 ft 128 kts 54°
2026-04-25 05:52 51.54528 0.63750 918 ft 128 kts 54°
2026-04-25 05:52 51.55050 0.64906 707 ft 127 kts 54°
2026-04-25 05:52 51.55570 0.66060 505 ft 127 kts 54°
2026-04-25 05:52 51.56082 0.67197 310 ft 127 kts 54°
2026-04-25 05:53 51.56601 0.68349 88 ft 126 kts 54°
2026-04-25 05:53 51.57043 0.69330 52 ft 74 kts 54°
2026-04-25 05:53 51.57224 0.69736 52 ft 23 kts 54°
2026-04-25 05:53 51.57231 0.69860 52 ft 11 kts 139°
2026-04-25 05:54 51.57158 0.69943 54 ft 13 kts 145°
2026-04-25 05:54 51.57081 0.70030 52 ft 14 kts 145°
2026-04-25 05:54 51.56968 0.70159 51 ft 8 kts 144°
2026-04-25 05:55 51.56932 0.70205 54 ft 6 kts 125°
2026-04-25 05:55 51.56928 0.70259 54 ft 4 kts 94°
2026-04-25 05:55 51.56927 0.70279 54 ft 0 kts 94°